User: anonymous   Login
Location: Unspecified
(0.0000°N, 0.0000°E)
Time: 04:41:22
(UTC+00:00)
Language:

Nova 1 - Orbit

View from above orbital plane
View from above orbital plane
View from above satellite
View from above satellite

Ground track
Ground track

The orbit data is extracted from the following two-line orbital elements,

1 12458U 81044A   18321.92814243 +.00000048 +00000-0 +93269-4 0  9990
2 12458 089.9330 118.7636 0015207 027.8483 085.1251 13.22992922810454
Epoch (UTC): 17 November 2018 22:16:31
Eccentricity: 0.0015207
inclination: 89.9330°
perigee height: 1162 km
apogee height: 1185 km
right ascension of ascending node: 118.7636°
argument of perigee: 27.8483°
revolutions per day: 13.22992922
mean anomaly at epoch: 85.1251°
orbit number at epoch: 81045

The dashed part of the orbit path shows where the satellite is in the earth's shadow,  

DLR